Orbital Elements at Epoch 2459000.5 (2020-May-31.0) TDB
Reference: JPL 17 (heliocentric ecliptic J2000)
Element | Value | Uncertainty (1-sigma) | Units |
e | .02847514294371459 | 4.8785e-08 | |
a | 2.629206228575753 | 2.2599e-08 | au |
q | 2.554339205388554 | 1.2771e-07 | au |
i | 12.63183157719171 | 4.7544e-06 | deg |
node | 128.0774207148017 | 2.4725e-05 | deg |
peri | 296.2425071124583 | 9.3007e-05 | deg |
M | 118.3050430602754 | 8.8278e-05 | deg |
tp | 2458488.775556079520 (2019-Jan-05.27555608) | 0.00038317 | TDB |
period | 1557.167767713114 4.26 | 2.0077e-05 5.497e-08 | d yr |
n | .2311889620786994 | 2.9807e-09 | deg/d |
Q | 2.704073251762952 | 2.3243e-08 | au |
|
| | Orbit Determination Parameters
Additional Information
|